Hourly Weather Sufczyna

Today, 16 January, Saturday

Time Temperature Precipitation Wind Pressure Humidity
00:00 -11°C° 0.1 mm 4 mps 739 mmHg 92%
01:00 -12°C° 0.1 mm 3 mps 739 mmHg 91%
02:00 -13°C° 0 mm 3 mps 739 mmHg 92%
03:00 -14°C° 0 mm 3 mps 739 mmHg 93%
04:00 -14°C° 0 mm 2 mps 739 mmHg 94%
05:00 -14°C° 0 mm 2 mps 739 mmHg 94%
06:00 -15°C° 0 mm 2 mps 739 mmHg 94%
07:00 -14°C° 0 mm 1 mps 739 mmHg 95%
08:00 -14°C° 0 mm 2 mps 739 mmHg 93%
09:00 -13°C° 0 mm 2 mps 739 mmHg 91%
10:00 -10°C° 0 mm 2 mps 739 mmHg 89%
11:00 -10°C° 0 mm 3 mps 739 mmHg 88%
12:00 -9°C° 0 mm 3 mps 738 mmHg 86%
13:00 -9°C° 0 mm 4 mps 738 mmHg 85%
14:00 -9°C° 0.1 mm 4 mps 738 mmHg 88%
15:00 -8°C° 0.1 mm 3 mps 737 mmHg 90%
16:00 -8°C° 0.1 mm 3 mps 737 mmHg 93%
17:00 -9°C° 0.1 mm 4 mps 737 mmHg 92%
18:00 -9°C° 0.1 mm 4 mps 737 mmHg 92%
19:00 -8°C° 0.1 mm 5 mps 736 mmHg 92%
20:00 -10°C° 0.1 mm 5 mps 736 mmHg 92%
21:00 -10°C° 0.1 mm 5 mps 736 mmHg 92%
22:00 -10°C° 0.1 mm 5 mps 736 mmHg 92%
23:00 -10°C° 0.3 mm 5 mps 736 mmHg 92%

Tomorrow, 17 January, Sunday

Time Temperature Precipitation Wind Pressure Humidity
00:00 -10°C° 0.3 mm 5 mps 736 mmHg 92%
01:00 -10°C° 0.3 mm 5 mps 736 mmHg 92%
02:00 -10°C° 0.3 mm 5 mps 736 mmHg 92%
03:00 -10°C° 0.3 mm 4 mps 736 mmHg 91%
04:00 -9°C° 0.3 mm 3 mps 736 mmHg 91%
05:00 -10°C° 0.1 mm 3 mps 736 mmHg 93%
06:00 -12°C° 0.1 mm 2 mps 736 mmHg 94%
07:00 -14°C° 0.1 mm 2 mps 737 mmHg 96%
08:00 -11°C° 0 mm 1 mps 737 mmHg 94%
09:00 -11°C° 0 mm 1 mps 738 mmHg 91%
10:00 -11°C° 0 mm 1 mps 738 mmHg 89%
11:00 -10°C° 0 mm 1 mps 739 mmHg 88%
12:00 -10°C° 0 mm 1 mps 739 mmHg 86%
13:00 -10°C° 0 mm 2 mps 739 mmHg 85%
14:00 -10°C° 0 mm 1 mps 739 mmHg 88%
15:00 -12°C° 0 mm 1 mps 739 mmHg 91%
16:00 -13°C° 0 mm 1 mps 740 mmHg 95%
17:00 -13°C° 0 mm 1 mps 740 mmHg 95%
18:00 -14°C° 0 mm 1 mps 740 mmHg 96%
19:00 -15°C° 0 mm 0 mps 741 mmHg 96%
20:00 -15°C° 0 mm 1 mps 741 mmHg 96%
21:00 -15°C° 0 mm 1 mps 741 mmHg 96%
22:00 -15°C° 0 mm 1 mps 741 mmHg 95%
23:00 -15°C° 0 mm 1 mps 742 mmHg 94%

Day after tomorrow, 18 January, Monday

Time Temperature Precipitation Wind Pressure Humidity
00:00 -15°C° 0 mm 1 mps 742 mmHg 94%
01:00 -14°C° 0 mm 1 mps 742 mmHg 93%
02:00 -14°C° 0 mm 1 mps 742 mmHg 93%
03:00 -14°C° 0 mm 1 mps 742 mmHg 92%
04:00 -14°C° 0 mm 1 mps 742 mmHg 92%
05:00 -14°C° 0 mm 1 mps 742 mmHg 93%
06:00 -14°C° 0 mm 1 mps 742 mmHg 93%
07:00 -16°C° 0 mm 2 mps 742 mmHg 93%
08:00 -15°C° 0 mm 2 mps 743 mmHg 91%
09:00 -15°C° 0 mm 2 mps 743 mmHg 89%
10:00 -14°C° 0 mm 2 mps 743 mmHg 87%
11:00 -13°C° 0 mm 2 mps 742 mmHg 85%
12:00 -12°C° 0 mm 2 mps 742 mmHg 83%
13:00 -10°C° 0 mm 2 mps 742 mmHg 81%
14:00 -12°C° 0 mm 2 mps 742 mmHg 84%
15:00 -11°C° 0 mm 1 mps 742 mmHg 87%
16:00 -12°C° 0 mm 1 mps 742 mmHg 90%
17:00 -12°C° 0 mm 1 mps 742 mmHg 89%
18:00 -12°C° 0 mm 1 mps 742 mmHg 88%
19:00 -12°C° 0 mm 1 mps 743 mmHg 88%
20:00 -12°C° 0 mm 1 mps 743 mmHg 88%
21:00 -14°C° 0 mm 2 mps 743 mmHg 88%
22:00 -14°C° 0 mm 2 mps 743 mmHg 88%
23:00 -13°C° 0 mm 2 mps 743 mmHg 88%

19 January, Tuesday

Time Temperature Precipitation Wind Pressure Humidity
00:00 -13°C° 0 mm 2 mps 743 mmHg 88%
01:00 -14°C° 0 mm 3 mps 743 mmHg 88%
02:00 -14°C° 0 mm 3 mps 743 mmHg 88%
03:00 -14°C° 0 mm 3 mps 742 mmHg 88%
04:00 -13°C° 0 mm 3 mps 742 mmHg 89%
05:00 -14°C° 0.1 mm 4 mps 742 mmHg 90%
06:00 -12°C° 0.1 mm 4 mps 742 mmHg 91%
07:00 -11°C° 0.1 mm 4 mps 742 mmHg 92%
08:00 -10°C° 0.2 mm 4 mps 742 mmHg 91%
09:00 -10°C° 0.2 mm 5 mps 742 mmHg 90%
10:00 -10°C° 0.2 mm 5 mps 742 mmHg 90%
11:00 -8°C° 0.1 mm 5 mps 742 mmHg 89%
12:00 -8°C° 0.1 mm 5 mps 742 mmHg 88%
13:00 -7°C° 0.1 mm 5 mps 742 mmHg 87%
14:00 -8°C° 0 mm 5 mps 742 mmHg 87%
15:00 -8°C° 0 mm 4 mps 742 mmHg 86%
16:00 -9°C° 0 mm 4 mps 742 mmHg 86%
17:00 -9°C° 0 mm 4 mps 742 mmHg 85%
18:00 -10°C° 0 mm 4 mps 742 mmHg 85%
19:00 -10°C° 0 mm 4 mps 742 mmHg 85%
20:00 -11°C° 0 mm 5 mps 742 mmHg 84%
21:00 -10°C° 0 mm 5 mps 742 mmHg 83%
22:00 -10°C° 0 mm 5 mps 742 mmHg 82%
23:00 -9°C° 0 mm 6 mps 741 mmHg 82%

20 January, Wednesday

Time Temperature Precipitation Wind Pressure Humidity
00:00 -9°C° 0 mm 6 mps 741 mmHg 81%
01:00 -8°C° 0 mm 6 mps 741 mmHg 80%
02:00 -7°C° 0 mm 7 mps 741 mmHg 81%
03:00 -7°C° 0 mm 7 mps 740 mmHg 82%
04:00 -7°C° 0 mm 7 mps 740 mmHg 82%
05:00 -7°C° 0.1 mm 7 mps 740 mmHg 84%
06:00 -7°C° 0.1 mm 7 mps 740 mmHg 85%
07:00 -7°C° 0.1 mm 7 mps 740 mmHg 86%
08:00 -6°C° 0 mm 7 mps 740 mmHg 84%
09:00 -6°C° 0 mm 7 mps 740 mmHg 82%
10:00 -4°C° 0 mm 7 mps 740 mmHg 80%
11:00 -4°C° 0 mm 7 mps 739 mmHg 80%
12:00 -3°C° 0 mm 7 mps 739 mmHg 81%
13:00 -3°C° 0 mm 7 mps 739 mmHg 81%
14:00 -3°C° 0 mm 7 mps 739 mmHg 82%
15:00 -3°C° 0 mm 7 mps 739 mmHg 82%
16:00 -4°C° 0 mm 7 mps 739 mmHg 82%
17:00 -4°C° 0 mm 8 mps 739 mmHg 82%
18:00 -4°C° 0 mm 8 mps 739 mmHg 82%
19:00 -4°C° 0 mm 8 mps 739 mmHg 81%
20:00 -4°C° 0 mm 8 mps 739 mmHg 81%
21:00 -2°C° 0 mm 8 mps 738 mmHg 80%
22:00 -3°C° 0 mm 9 mps 738 mmHg 80%
23:00 -1°C° 0 mm 9 mps 738 mmHg 79%

21 January, Thursday

Time Temperature Precipitation Wind Pressure Humidity
00:00 -1°C° 0 mm 9 mps 738 mmHg 79%
01:00 -1°C° 0 mm 9 mps 738 mmHg 79%
02:00 0°C° 0 mm 9 mps 737 mmHg 79%
03:00 0°C° 0 mm 9 mps 737 mmHg 79%
04:00 0°C° 0 mm 8 mps 737 mmHg 79%
05:00 0°C° 0 mm 8 mps 736 mmHg 80%
06:00 +1°C° 0 mm 8 mps 736 mmHg 80%
07:00 +1°C° 0 mm 8 mps 736 mmHg 80%
08:00 +1°C° 0 mm 8 mps 735 mmHg 81%
09:00 +1°C° 0 mm 8 mps 735 mmHg 82%
10:00 +1°C° 0 mm 8 mps 735 mmHg 83%
11:00 +1°C° 0 mm 8 mps 735 mmHg 82%
12:00 +1°C° 0 mm 8 mps 734 mmHg 82%
13:00 +1°C° 0 mm 8 mps 734 mmHg 82%
14:00 +1°C° 0 mm 8 mps 734 mmHg 81%
15:00 +2°C° 0 mm 7 mps 734 mmHg 81%
16:00 0°C° 0 mm 7 mps 734 mmHg 80%
17:00 0°C° 0 mm 8 mps 734 mmHg 81%
18:00 +1°C° 0 mm 8 mps 735 mmHg 82%
19:00 +1°C° 0 mm 8 mps 735 mmHg 82%
20:00 +1°C° 0 mm 8 mps 735 mmHg 83%
21:00 +2°C° 0 mm 7 mps 735 mmHg 84%
22:00 +2°C° 0 mm 7 mps 736 mmHg 85%
23:00 +2°C° 0 mm 7 mps 736 mmHg 85%
Show more